FW0251 Weather Reports


time (UTC)temp
C
wind
direction
speed
KPH
gust
KPH
rain 1hr
cm
rain 24hr
cm
rain mn
cm
humidity
%
barometer
mb
20260507180033 12 198 0.0 4.8 0.00 0.08 0.08 68 1010.9
20260507174541 12 78 0.0 3.2 0.00 0.08 0.08 68 1011.0
20260507173036 12 163 0.0 3.2 0.00 0.08 0.08 66 1011.0
20260507171532 12 149 0.0 3.2 0.00 0.08 0.08 66 1011.1
20260507170029 12 123 0.0 3.2 0.00 0.08 0.08 59 1011.1
20260507164529 12 144 0.0 3.2 0.00 0.08 0.08 59 1011.7
20260507163028 12 248 0.0 3.2 0.00 0.08 0.08 58 1011.7
20260507161534 11 121 0.0 1.6 0.03 0.08 0.08 55 1011.6
20260507160028 11 120 0.0 3.2 0.03 0.08 0.08 53 1011.9
20260507154533 11 205 0.0 3.2 0.03 0.08 0.08 59 1012.0
20260507153036 12 113 0.0 4.8 0.05 0.08 0.08 56 1012.4
20260507151521 12 78 0.0 3.2 0.03 0.05 0.05 53 1012.1
20260507150021 12 188 0.0 3.2 0.03 0.10 0.05 54 1011.9
20260507144517 13 175 0.0 3.2 0.03 0.10 0.05 59 1011.9
20260507143022 13 188 0.0 4.8 0.00 0.08 0.03 66 1012.1
20260507141515 13 241 0.0 4.8 0.00 0.08 0.03 67 1011.8
20260507140013 13 92 1.6 6.4 0.00 0.20 0.03 69 1012.2
20260507134514 13 217 0.0 6.4 0.00 0.20 0.03 68 1012.2
20260507133012 13 76 0.0 3.2 0.00 0.20 0.03 68 1012.0
20260507131517 13 219 0.0 4.8 0.00 0.20 0.03 66 1011.6
20260507130021 13 225 0.0 3.2 0.00 0.20 0.03 68 1012.0
20260507124516 13 265 1.6 4.8 0.00 0.20 0.03 70 1011.8
20260507123010 13 69 0.0 4.8 0.00 0.20 0.03 68 1011.3
20260507121509 13 260 0.0 3.2 0.00 0.20 0.03 67 1011.6
20260507120016 13 215 0.0 4.8 0.00 0.20 0.03 69 1011.5
20260507114508 13 80 0.0 4.8 0.00 0.20 0.03 69 1011.7
20260507113006 13 181 1.6 6.4 0.00 0.20 0.03 68 1011.4
20260507111506 13 206 0.0 3.2 0.00 0.20 0.03 69 1011.2
20260507110004 13 98 1.6 4.8 0.00 0.20 0.03 67 1010.8
20260507104504 13 247 0.0 8.0 0.00 0.20 0.03 67 1010.9
20260507103002 13 223 0.0 4.8 0.00 0.20 0.03 63 1010.9
20260507101501 13 239 0.0 3.2 0.00 0.20 0.03 61 1010.5
20260507100100 13 119 0.0 4.8 0.00 0.20 0.03 62 1010.4
20260507094559 13 242 0.0 4.8 0.00 0.20 0.03 63 1011.0
20260507093059 13 84 0.0 4.8 0.00 0.20 0.03 61 1010.9
20260507091556 13 110 0.0 3.2 0.00 0.20 0.03 59 1010.7
20260507090054 14 91 1.6 4.8 0.00 0.20 0.03 58 1010.4
20260507084551 15 155 0.0 6.4 0.00 0.20 0.03 57 1010.5
20260507083047 15 81 0.0 4.8 0.00 0.20 0.03 52 1010.3
20260507081543 16 173 0.0 3.2 0.00 0.20 0.03 49 1010.3
20260507080041 17 237 0.0 3.2 0.03 0.20 0.03 39 1010.1
20260507074536 18 275 0.0 3.2 0.03 0.20 0.03 29 1009.4
20260507073028 18 77 3.2 4.8 0.03 0.20 0.03 32 1009.0
20260507071556 18 121 0.0 1.6 0.03 0.20 0.03 33 1009.1
20260507070024 18 121 0.0 0.0 0.03 0.20 0.03 35 1009.4
20260507064523 18 121 0.0 0.0 0.00 0.18 0.00 37 1009.1
20260507063021 19 121 0.0 1.6 0.00 0.18 0.00 40 1008.7
20260507061520 19 76 0.0 1.6 0.00 0.18 0.00 44 1008.7
20260507060023 19 76 0.0 1.6 0.00 0.18 0.00 48 1008.4
20260507054518 19 76 0.0 1.6 0.00 0.18 0.00 52 1008.5
20260507053017 19 76 0.0 3.2 0.00 0.18 0.00 54 1008.6
20260507051527 19 142 0.0 3.2 0.00 0.18 0.00 54 1008.6
20260507050013 19 156 0.0 3.2 0.00 0.18 0.00 53 1009.1
20260507044508 19 80 0.0 4.8 0.00 0.18 0.00 50 1009.4
20260507043011 18 114 0.0 3.2 0.00 0.18 0.00 49 1009.6
20260507041507 18 150 0.0 1.6 0.00 0.18 0.00 48 1009.8
20260507040003 19 150 0.0 0.0 0.00 0.18 0.18 50 1009.3
20260507034505 19 150 0.0 0.0 0.00 0.18 0.18 50 1009.6
20260507033010 19 150 0.0 0.0 0.00 0.18 0.18 50 1010.0
20260507031502 18 150 0.0 1.6 0.00 0.18 0.18 49 1009.5
20260507030003 18 150 0.0 1.6 0.00 0.18 0.18 49 1009.4
20260507024501 18 276 0.0 1.6 0.00 0.18 0.18 49 1009.0
20260507023100 18 211 0.0 1.6 0.00 0.18 0.18 50 1009.1
20260507021600 18 211 0.0 0.0 0.00 0.18 0.18 52 1009.1
20260507020101 18 211 0.0 0.0 0.00 0.18 0.18 55 1009.6
20260507014619 19 211 0.0 0.0 0.00 0.18 0.18 57 1009.5
20260507013058 19 211 0.0 1.6 0.00 0.18 0.18 59 1009.6
20260507011604 19 211 0.0 0.0 0.00 0.18 0.18 61 1009.5
20260507010109 20 211 0.0 0.0 0.00 0.18 0.18 63 1009.5
20260507004657 20 211 0.0 1.6 0.00 0.18 0.18 64 1009.2
20260507003059 20 211 0.0 1.6 0.00 0.18 0.18 66 1009.5
20260507001557 20 213 0.0 4.8 0.00 0.18 0.18 67 1009.5
20260507000056 20 109 0.0 3.2 0.00 0.18 0.18 68 1009.6
20260506234555 20 43 0.0 3.2 0.00 0.18 0.18 69 1009.6
20260506233058 20 201 0.0 4.8 0.00 0.18 0.18 69 1009.3
20260506231553 21 195 0.0 4.8 0.00 0.18 0.18 70 1009.3
20260506230053 21 221 0.0 4.8 0.00 0.18 0.18 70 1009.1
20260506224553 21 194 1.6 6.4 0.00 0.18 0.18 70 1009.1
20260506223052 21 191 0.0 4.8 0.00 0.18 0.18 70 1009.2
20260506221552 20 275 0.0 4.8 0.00 0.18 0.18 70 1009.3
20260506220051 21 63 0.0 4.8 0.00 0.18 0.18 70 1009.3
20260506214601 21 110 0.0 4.8 0.00 0.18 0.18 70 1009.0
20260506213049 21 296 0.0 6.4 0.00 0.18 0.18 70 1009.2
20260506211549 21 236 0.0 4.8 0.00 0.18 0.18 70 1009.2
20260506210048 21 333 0.0 11.3 0.00 0.18 0.18 70 1009.3
20260506204550 21 211 0.0 6.4 0.00 0.18 0.18 68 1009.2
20260506203045 20 188 1.6 4.8 0.00 0.18 0.18 62 1009.2
20260506201545 20 74 0.0 3.2 0.00 0.18 0.18 64 1009.1
20260506200048 20 188 1.6 4.8 0.00 0.18 0.18 62 1008.9
20260506194544 19 243 0.0 6.4 0.00 0.18 0.18 65 1009.5
20260506193043 19 355 0.0 3.2 0.00 0.18 0.18 63 1009.2
20260506191545 19 48 0.0 4.8 0.00 0.18 0.18 60 1009.0
20260506190039 18 252 0.0 4.8 0.00 0.18 0.18 57 1009.7
20260506184538 18 226 0.0 4.8 0.00 0.18 0.18 56 1009.9
20260506183038 18 261 0.0 8.0 0.00 0.18 0.18 57 1010.0
20260506181544 18 175 0.0 8.0 0.00 0.18 0.18 59 1010.0